sat.trackr.live / text

‹ back to catalog

STARLINK-31472

NORAD 59730 · 2024-090A

PAYLOAD ACTIVE UNKNOWN

§ Identity

Operator
Country
US
Launch date
2024-05-13
Launch site
AFETR
Launch vehicle
Mass (kg)
RCS (m²)

Purposes: comms

External: N2YO · Heavens-Above · Gunter

§ Orbital elements

Epoch: 2026-05-24T22:50:25.689408Z

Period
94.27 min
Inclination
43.0027°
Eccentricity
0.0000731
Mean motion
15.27571996 rev/d
Perigee alt
482.6 km
Apogee alt
483.6 km
Semi-major
6,861.2 km
B*
2.1288e-6
RAAN
112.7867°
Arg perigee
262.3012°
Mean anomaly
97.7756°
Rev number
11,510

§ Raw data

STARLINK-314721 59730U 24090A   26144.95168622 -.00000203  00000+0  21288-5 0  99962 59730  43.0027 112.7867 0000731 262.3012  97.7756 15.27571996115102

JSON: /api/v1/satellites/59730 · /tle

For live sub-satellite position, see the globe view (requires WebGL).

§ Visibility from observer

Set your observer location to see the next 7 days of passes ≥ 10°. The values pass through the URL so the page stays shareable.

No JS? Fill the form by hand. The geolocation button needs JavaScript.